Location: Newark
(39.0622°N, 106.5590°E)
Time: 21:08:55
(UTC+00:00)

Vanguard 2 Rocket - Pass Details

Date: 27 January 2020
Orbit: 553 x 3327 km, 32.9° (Epoch: 23 February)

Event Time Altitude Azimuth Distance (km) Brightness Sun altitude
Rises 22:21:12 0° 251° (WSW) 2,749 - -20.1°
Reaches altitude 10° 22:23:16 10° 244° (WSW) 1,933 - -19.7°
Exits shadow 22:25:14 26° 226° (SW) 1,277 7.3 -19.3°
Maximum altitude 22:27:17 42° 172° (S) 1,024 7.2 -18.9°
Drops below altitude 10° 22:33:04 10° 103° (ESE) 2,778 10.7 -17.8°
Sets 22:36:36 0° 97° (E) 4,144 12.1 -17.1°
